Location: La Bastide
(43.1661°N, 1.2755°E)
Time: 13:43:24
(UTC+00:00)

Landsat 7 - Pass Details

Date: 13 December 2025
Orbit: 680 x 682 km, 97.9° (Epoch: 19 January)

Event Time Altitude Azimuth Distance (km) Brightness Sun altitude
Rises 17:15:22 0° 159° (SSE) 3,030 7.1 -9.8°
Reaches altitude 10° 17:17:36 10° 157° (SSE) 2,119 6.3 -10.2°
Maximum altitude 17:22:12 69° 75° (ENE) 734 3.7 -11.0°
Drops below altitude 10° 17:26:51 10° 352° (N) 2,135 6.2 -11.8°
Sets 17:29:06 0° 350° (N) 3,054 7.0 -12.1°
